When you browse on this site, cookies collect data to enhance your experience and personalize the content and advertising you see.
Visit our Privacy Policy to learn more. By continuing to use the site, you agree to this use of cookies and data.
  • In Belgium
  • List of Countries
  • For 7 days
  • Water Temperature
  • Satellite Maps
  • Weather Map
  • Weather Widgets
  • user-avatar
    Login

    Hourly Weather Grisons

    Today, 19 December, Wednesday

    Time Temperature Precipitation Wind Pressure Humidity
    00:00 -4°C° 0 mm 3 mps 667 mmHg 46%
    01:00 -4°C° 0 mm 3 mps 667 mmHg 48%
    02:00 -4°C° 0 mm 3 mps 667 mmHg 51%
    03:00 -2°C° 0 mm 2 mps 667 mmHg 53%
    04:00 -2°C° 0 mm 2 mps 667 mmHg 56%
    05:00 -2°C° 0 mm 2 mps 667 mmHg 58%
    06:00 -1°C° 0 mm 2 mps 667 mmHg 61%
    07:00 -1°C° 0 mm 2 mps 667 mmHg 64%
    08:00 -1°C° 0 mm 2 mps 667 mmHg 67%
    09:00 +1°C° 0 mm 2 mps 667 mmHg 70%
    10:00 +1°C° 0 mm 2 mps 667 mmHg 73%
    11:00 +2°C° 0 mm 2 mps 667 mmHg 76%
    12:00 +3°C° 0 mm 2 mps 667 mmHg 79%
    13:00 +2°C° 0 mm 3 mps 667 mmHg 81%
    14:00 +2°C° 0.1 mm 3 mps 666 mmHg 84%
    15:00 +1°C° 0.1 mm 3 mps 666 mmHg 86%
    16:00 +1°C° 0.1 mm 3 mps 665 mmHg 88%
    17:00 +1°C° 0.4 mm 2 mps 665 mmHg 90%
    18:00 +1°C° 0.4 mm 2 mps 665 mmHg 91%
    19:00 -1°C° 0.4 mm 2 mps 665 mmHg 93%
    20:00 +1°C° 0.8 mm 2 mps 665 mmHg 94%
    21:00 +2°C° 0.8 mm 1 mps 665 mmHg 94%
    22:00 +2°C° 0.8 mm 1 mps 666 mmHg 95%
    23:00 +2°C° 0.8 mm 1 mps 666 mmHg 95%

    Tomorrow, 20 December, Thursday

    Time Temperature Precipitation Wind Pressure Humidity
    00:00 +2°C° 0.8 mm 1 mps 666 mmHg 95%
    01:00 +2°C° 0.8 mm 1 mps 666 mmHg 95%
    02:00 +2°C° 0.2 mm 1 mps 666 mmHg 95%
    03:00 +1°C° 0.2 mm 1 mps 666 mmHg 94%
    04:00 +1°C° 0.2 mm 1 mps 666 mmHg 94%
    05:00 +1°C° 0.1 mm 1 mps 666 mmHg 94%
    06:00 +1°C° 0.1 mm 1 mps 666 mmHg 94%
    07:00 0°C° 0.1 mm 1 mps 666 mmHg 94%
    08:00 +1°C° 0 mm 1 mps 667 mmHg 93%
    09:00 +1°C° 0 mm 1 mps 667 mmHg 92%
    10:00 +2°C° 0 mm 1 mps 667 mmHg 90%
    11:00 +3°C° 0 mm 1 mps 667 mmHg 88%
    12:00 +3°C° 0 mm 1 mps 667 mmHg 86%
    13:00 +4°C° 0 mm 1 mps 667 mmHg 84%
    14:00 +3°C° 0 mm 1 mps 667 mmHg 86%
    15:00 +2°C° 0 mm 1 mps 667 mmHg 88%
    16:00 +1°C° 0 mm 1 mps 667 mmHg 90%
    17:00 0°C° 0 mm 1 mps 667 mmHg 89%
    18:00 -1°C° 0 mm 1 mps 667 mmHg 88%
    19:00 -2°C° 0 mm 1 mps 668 mmHg 87%
    20:00 -2°C° 0 mm 1 mps 668 mmHg 84%
    21:00 -4°C° 0 mm 2 mps 668 mmHg 80%
    22:00 -4°C° 0 mm 2 mps 668 mmHg 77%
    23:00 -4°C° 0 mm 2 mps 668 mmHg 76%

    Day after tomorrow, 21 December, Friday

    Time Temperature Precipitation Wind Pressure Humidity
    00:00 -4°C° 0 mm 2 mps 668 mmHg 75%
    01:00 -4°C° 0 mm 2 mps 669 mmHg 74%
    02:00 -4°C° 0 mm 2 mps 668 mmHg 74%
    03:00 -3°C° 0 mm 2 mps 668 mmHg 74%
    04:00 -3°C° 0 mm 2 mps 668 mmHg 74%
    05:00 -2°C° 0 mm 2 mps 668 mmHg 73%
    06:00 -2°C° 0 mm 2 mps 668 mmHg 71%
    07:00 -1°C° 0 mm 3 mps 668 mmHg 70%
    08:00 -1°C° 0.1 mm 3 mps 668 mmHg 72%
    09:00 0°C° 0.1 mm 3 mps 668 mmHg 73%
    10:00 +1°C° 0.1 mm 3 mps 668 mmHg 74%
    11:00 +1°C° 0.2 mm 3 mps 668 mmHg 75%
    12:00 +2°C° 0.2 mm 3 mps 668 mmHg 75%
    13:00 +3°C° 0.2 mm 3 mps 667 mmHg 75%
    14:00 +2°C° 0.2 mm 3 mps 667 mmHg 77%
    15:00 +3°C° 0.2 mm 2 mps 667 mmHg 79%
    16:00 +3°C° 0.2 mm 2 mps 667 mmHg 80%
    17:00 +3°C° 0.1 mm 2 mps 667 mmHg 79%
    18:00 +2°C° 0.1 mm 2 mps 667 mmHg 78%
    19:00 +2°C° 0.1 mm 2 mps 667 mmHg 77%
    20:00 +2°C° 0.1 mm 2 mps 667 mmHg 77%
    21:00 +2°C° 0.1 mm 2 mps 667 mmHg 78%
    22:00 +3°C° 0.1 mm 2 mps 667 mmHg 78%
    23:00 +3°C° 0.3 mm 2 mps 667 mmHg 80%

    22 December, Saturday

    Time Temperature Precipitation Wind Pressure Humidity
    00:00 +3°C° 0.3 mm 2 mps 667 mmHg 81%
    01:00 +4°C° 0.3 mm 2 mps 667 mmHg 82%
    02:00 +4°C° 0.1 mm 2 mps 667 mmHg 82%
    03:00 +4°C° 0.1 mm 2 mps 666 mmHg 83%
    04:00 +3°C° 0.1 mm 2 mps 666 mmHg 83%
    05:00 +3°C° 0.1 mm 2 mps 666 mmHg 85%
    06:00 +3°C° 0.1 mm 2 mps 666 mmHg 86%
    07:00 +3°C° 0.1 mm 2 mps 666 mmHg 87%
    08:00 +4°C° 0 mm 2 mps 666 mmHg 87%
    09:00 +4°C° 0 mm 2 mps 667 mmHg 88%
    10:00 +5°C° 0 mm 2 mps 667 mmHg 88%
    11:00 +7°C° 0 mm 1 mps 667 mmHg 90%
    12:00 +8°C° 0 mm 1 mps 667 mmHg 92%
    13:00 +8°C° 0 mm 1 mps 667 mmHg 94%
    14:00 +8°C° 0 mm 1 mps 667 mmHg 94%
    15:00 +6°C° 0 mm 2 mps 667 mmHg 94%
    16:00 +5°C° 0 mm 2 mps 667 mmHg 94%
    17:00 +5°C° 0 mm 2 mps 667 mmHg 93%
    18:00 +4°C° 0 mm 2 mps 668 mmHg 93%
    19:00 +3°C° 0 mm 2 mps 668 mmHg 92%
    20:00 +3°C° 0 mm 2 mps 668 mmHg 92%
    21:00 +2°C° 0 mm 2 mps 668 mmHg 91%
    22:00 +2°C° 0 mm 2 mps 669 mmHg 91%
    23:00 +2°C° 0 mm 2 mps 669 mmHg 90%

    23 December, Sunday

    Time Temperature Precipitation Wind Pressure Humidity
    00:00 +1°C° 0 mm 2 mps 669 mmHg 89%
    01:00 +1°C° 0 mm 2 mps 669 mmHg 89%
    02:00 +1°C° 0 mm 2 mps 669 mmHg 87%
    03:00 +1°C° 0 mm 2 mps 669 mmHg 85%
    04:00 +1°C° 0 mm 2 mps 669 mmHg 83%
    05:00 +1°C° 0 mm 2 mps 669 mmHg 83%
    06:00 +1°C° 0 mm 2 mps 669 mmHg 84%
    07:00 +1°C° 0 mm 2 mps 669 mmHg 84%
    08:00 +2°C° 0 mm 2 mps 670 mmHg 84%
    09:00 +3°C° 0 mm 2 mps 670 mmHg 84%
    10:00 +3°C° 0 mm 2 mps 670 mmHg 85%
    11:00 +4°C° 0.1 mm 2 mps 670 mmHg 86%
    12:00 +5°C° 0.1 mm 2 mps 670 mmHg 88%
    13:00 +6°C° 0.1 mm 2 mps 670 mmHg 89%
    14:00 +5°C° 0.2 mm 2 mps 670 mmHg 90%
    15:00 +5°C° 0.2 mm 2 mps 670 mmHg 90%
    16:00 +4°C° 0.2 mm 2 mps 670 mmHg 91%
    17:00 +4°C° 0.2 mm 2 mps 670 mmHg 91%
    18:00 +3°C° 0.2 mm 2 mps 670 mmHg 91%
    19:00 +3°C° 0.2 mm 2 mps 670 mmHg 91%
    20:00 +3°C° 0.1 mm 2 mps 670 mmHg 90%
    21:00 +3°C° 0.1 mm 2 mps 670 mmHg 89%
    22:00 +3°C° 0.1 mm 2 mps 670 mmHg 88%
    23:00 +3°C° 0.1 mm 2 mps 670 mmHg 86%

    24 December, Monday

    Time Temperature Precipitation Wind Pressure Humidity
    00:00 +4°C° 0.1 mm 2 mps 670 mmHg 85%
    01:00 +4°C° 0.1 mm 2 mps 670 mmHg 84%
    02:00 +4°C° 0.3 mm 2 mps 670 mmHg 85%
    03:00 +4°C° 0.3 mm 2 mps 670 mmHg 86%
    04:00 +4°C° 0.3 mm 2 mps 670 mmHg 87%
    05:00 +5°C° 1.1 mm 2 mps 670 mmHg 88%
    06:00 +4°C° 1.1 mm 3 mps 670 mmHg 90%
    07:00 +4°C° 1.1 mm 3 mps 671 mmHg 92%
    08:00 +5°C° 0.4 mm 3 mps 671 mmHg 92%
    09:00 +5°C° 0.4 mm 3 mps 671 mmHg 92%
    10:00 +5°C° 0.4 mm 3 mps 671 mmHg 92%
    11:00 +6°C° 0.3 mm 2 mps 671 mmHg 93%
    12:00 +7°C° 0.3 mm 2 mps 671 mmHg 93%
    13:00 +7°C° 0.3 mm 2 mps 671 mmHg 94%
    14:00 +7°C° 0.3 mm 2 mps 671 mmHg 94%
    15:00 +6°C° 0.3 mm 2 mps 671 mmHg 94%
    16:00 +6°C° 0.3 mm 2 mps 671 mmHg 94%
    17:00 +6°C° 0.1 mm 2 mps 671 mmHg 93%
    18:00 +5°C° 0.1 mm 2 mps 672 mmHg 92%
    19:00 +4°C° 0.1 mm 2 mps 672 mmHg 91%
    20:00 +4°C° 0 mm 2 mps 672 mmHg 90%
    21:00 +4°C° 0 mm 2 mps 672 mmHg 89%
    22:00 +4°C° 0 mm 2 mps 672 mmHg 88%
    23:00 +4°C° 0 mm 2 mps 672 mmHg 86%
    Show more